SCP
0 0 0 0 0 0 0 0 0 0 0 0 0 0 0 0 0 0 0 0 0 0 0 0 0 0 0 0 0 0 0 0 0 0 0 0 0 0 0 0 0 0 0 0
0 0 0 0 0 0 0 0 0 0 0 0 0 0 0 0 0 0 0 0 0 0 0 0 0 0 0 0 0 0 0 0 0 0 0 0 0 0 0 0 0 0 0 0
0 0 0 0 0 0 0 0 0 0 0 0 0 0 0 0 0 0 0 0 0 0 0 0 0 0 0 0 0 0 0 0 0 0 0 0 0 0 0 0 0 0 0 0
0 0 0 0 0 0 0 0 0 0 0 0 0 0 0 0 0 0 0 0 0 0 0 0 0 0 0 0 0 0 0 0 0 0 0 0 0 0 0 0 0 0 0 0
0 0 0 0 0 -0 0 0 0 0 0 0 0 0 0 0 0 0 0 0 0 0 0 0 0 0 0 0 0 0 0 0 0 0 0 0 0 0 0 0 0 0 0 0
0 0 0 0 0 0 0 0 0 0 0 0 0 0 0 0 0 0 0 0 0 0 0 0 0 0 0 0 0 0 0 0 0 0 0 0 0 0 -0 0 0 0 0 0
0 0 0 0 0 0 0 0 0 0 0 0 0 0 0 0 0 0 0 0 0 0 0 0 0 0 0 0 0 0 0 0 0 0 0 0 0 0 0 0 0 0 0 0
0 0 0 0 0 0 0 0 0 0 0 0 0 0 0 0 0 0 0 0 0 0 0 0 0 0 0 0 0 0 0 0 0 0 0 0 0 0 0 0 0 0 0 0
0 0 0 0 0 0 0 0 0 0 0 0 0 0 0 0 0 0 0 0 0 0 0 0 0 0 0 0 0 0 0 0 0 0 0 0 0 0 0 0 0 0 0 0
0 0 0 0 0 0 0 0 0 0 0 0 0 0 0 0 0 0 0 0 0 0 0 0 0 0 0 0 0 0 0 0 0 0 0 0 0 0 0 0 0 0 0 0
0 0 0 0 0 0 0 -0 0 0 0 0 0 0 0 0 0 0 0 0 0 0 0 0 0 0 0 0 0 0 0 0 0 0 0 0 0 0 0 0 0 0 0 0
0 0 0 0 0 0 0 0 -0 0 0 0 0 0 0 0 0 0 0 0 0 0 0 0 0 0 0 0 0 0 0 0 0 0 0 0 0 0 0 0 0 0 0 0
0 0 0 0 0 0 0 0 0 0 0 0 0 0 0 0 0 0 0 0 0 0 0 0 0 0 0 0 0 0 0 0 0 0 0 0 0 0 0 0 0 0 0 0
0 0 0 0 0 0 0 0 0 0 0 0 0 0 0 0 0 0 0 0 0 0 0 0 0 0 0 0 0 0 0 0 0 0 0 0 0 0 0 0 0 0 0 0
0 0 0 0 0 0 0 0 0 0 0 0 0 0 0 0 0 0 0 0 0 0 0 0 0 0 0 0 0 0 0 0 0 0 0 0 0 0 0 0 0 0 0 0
0 0 0 0 0 0 0 0 0 0 0 0 0 0 0 0 0 0 0 0 0 0 0 0 0 0 0 0 0 0 0 0 0 0 0 0 0 0 0 0 0 0 0 0
-0 -0 0 0 0 0 0 0 0 0 0 0 0 0 0 0 0 0 0 0 0 0 0 0 0 0 0 0 0 0 0 0 0 0 0 0 0 0 0 0 0 0 0 0
0 0 -0 0 0 0 0 0 0 0 0 0 0 0 0 0 0 0 0 0 0 0 0 0 0 0 0 0 0 0 0 0 0 0 0 0 0 0 0 0 0 0 0 0
-0 0 0 0 0 0 0 -0 -0 0 0 0 0 0 0 0 0 0 0 0 0 0 0 0 0 0 0 0 0 0 0 0 0 0 0 0 0 0 0 0 0 0 -0 0
-0 0 0 0 0 0 0 0 0 0 0 0 0 0 0 0 0 0 0 0 0 0 0 0 0 0 0 0 0 0 0 0 0 0 0 0 0 0 0 0 0 0 0 0
-0 -0 0 0 0 0 0 0 0 0 0 0 0 0 0 0 0 0 0 0 0 0 0 0 0 0 0 0 0 0 0 0 0 0 0 0 0 0 0 0 0 0 0 0
0 0 0 0 0 0 0 0 0 0 0 0 0 0 0 0 0 0 0 0 0 0 0 0 0 0 0 0 0 0 0 0 0 0 0 0 0 0 0 0 0 0 0 0
0 0 0 -0 0 0 0 0 -0 -0 0 0 0 0 0 0 0 0 0 0 0 0 0 0 0 0 0 0 0 0 0 0 0 0 0 0 0 0 0 0 0 0 0 0
0 0 0 0 0 0 0 0 0 0 0 0 0 0 0 0 0 0 0 0 0 0 0 -0 -0 -0 -0 0 0 0 0 0 0 0 0 0 0 0 0 0 0 0 0 0
0 0 0 0 0 0 0 0 0 0 0 0 0 0 0 0 0 0 0 0 0 0 0 -0 -0 0 0 0 0 0 -0 0 0 0 0 0 0 -0 -0 0 0 0 0 0
0 0 0 0 0 0 0 0 0 0 0 0 0 0 0 0 0 0 0 0 0 0 0 0 0 0 0 0 0 0 -0 -0 0 0 0 0 0 0 0 0 0 0 0 0
0 0 0 0 0 0 0 0 0 0 0 0 0 0 0 0 0 0 0 0 0 0 0 0 0 -0 -0 -0 0 0 0 -0 0 0 0 0 0 -0 -0 -0 -0 0 0 0
Wind_Speed_500mb
37 34 29 23 20 10 15 14 8 14 37 16 11 13 11 4 11 17 11 5 9 8 7 5 7 8 6 6 8 5 3 2 7 11 7 3 2 4 7 8 6 7 7 21
43 40 31 28 21 15 18 11 13 16 43 13 16 5 7 15 11 14 14 16 15 7 8 6 12 4 5 5 6 5 9 5 5 8 4 5 10 13 13 8 5 23 15 18
44 47 44 31 26 27 26 8 5 15 31 26 22 16 13 13 18 29 18 10 10 7 11 17 4 4 2 4 6 6 4 6 13 23 17 5 8 17 22 20 10 19 34 54
42 49 45 43 33 31 35 18 10 18 10 24 25 32 11 17 18 20 27 12 30 20 13 16 9 13 9 11 12 10 2 12 13 25 28 25 27 30 29 30 38 21 50 45
62 46 52 53 42 34 43 18 10 10 13 27 33 40 35 30 20 20 13 31 23 36 27 23 10 15 14 12 14 13 7 6 2 9 16 18 28 38 35 42 48 47 58 61
55 61 53 54 57 48 53 46 45 14 20 22 23 35 41 36 41 28 43 26 29 23 29 38 33 15 14 9 13 18 14 8 7 12 5 6 19 22 38 30 36 37 39 47
59 65 60 64 61 68 62 52 42 28 24 22 32 26 43 44 42 40 20 43 31 7 10 14 16 12 12 25 26 25 13 12 7 9 2 21 17 5 15 24 33 36 40 41
57 63 68 66 76 70 82 72 62 26 26 40 40 41 34 39 42 45 38 28 12 21 13 4 10 6 5 17 31 36 27 15 8 10 19 31 46 35 27 20 25 29 35 30
69 64 65 67 64 79 69 95 83 55 20 37 53 44 45 29 22 21 33 43 26 25 6 10 22 16 6 10 7 2 17 27 15 15 15 18 21 10 13 12 19 24 24 19
62 66 65 68 61 66 69 60 100 68 47 74 40 36 34 47 36 19 13 17 18 42 14 20 21 21 13 19 13 13 12 10 33 29 22 19 23 22 19 11 17 26 29 19
61 63 64 61 64 65 63 73 65 88 45 70 52 72 41 27 45 22 12 11 18 12 20 15 18 20 21 23 20 16 24 20 17 20 20 35 25 24 19 17 13 14 11 9
60 62 65 61 60 61 62 75 72 63 66 42 59 83 65 78 68 45 41 18 12 27 14 16 11 15 9 20 24 21 16 25 18 22 19 20 19 18 37 22 17 23 34 48
63 63 66 63 61 63 64 74 68 55 66 67 61 72 78 78 73 64 30 23 40 23 16 6 7 18 5 24 32 22 21 33 24 24 39 46 52 43 38 39 47 56 62 70
62 59 56 59 60 63 60 69 70 71 29 13 34 58 86 73 85 95 88 68 37 32 32 20 12 17 20 14 19 20 24 24 37 38 52 53 57 55 51 55 61 64 67 58
54 51 50 52 55 56 57 65 71 73 63 6 18 41 50 75 79 71 65 65 55 36 25 14 18 23 23 30 32 30 42 44 30 32 33 37 43 52 56 55 51 48 48 56
49 46 45 47 51 50 55 44 61 74 65 19 9 13 37 58 62 74 76 76 61 53 32 19 44 64 31 15 28 41 57 64 79 57 77 81 74 74 56 47 48 67 65 79
50 43 42 40 45 39 26 13 15 16 67 28 5 8 21 58 47 44 40 49 38 38 34 23 41 43 42 28 42 56 75 76 45 58 56 70 74 61 60 61 74 76 83 90
47 40 36 30 30 33 39 40 32 34 54 23 7 2 13 45 20 20 37 25 33 28 30 31 27 38 35 29 46 76 89 78 76 84 75 80 84 81 78 71 79 88 91 98
37 34 33 30 33 30 37 32 24 29 24 8 9 10 5 26 14 17 20 23 11 19 14 24 20 24 23 29 42 59 76 76 75 82 87 88 90 94 93 91 94 89 101 102
35 30 18 14 25 30 15 15 10 12 9 13 1 9 8 23 23 17 13 17 10 9 15 19 19 32 70 72 74 66 62 72 81 56 59 71 77 80 86 87 95 96 104 104
43 21 23 16 21 29 15 13 12 9 5 12 20 33 14 26 11 10 20 6 6 9 11 11 9 11 28 66 78 90 94 94 95 94 91 89 88 85 81 85 90 89 97 101
43 28 23 30 19 14 12 10 10 10 11 14 14 23 43 19 18 10 10 8 7 13 9 8 10 23 38 49 62 70 80 92 91 90 93 94 93 100 98 94 91 95 100 96
51 25 18 15 14 14 15 15 9 10 8 16 14 8 19 10 18 7 9 14 12 5 9 15 26 16 39 51 64 61 71 62 65 78 84 85 92 97 93 92 95 97 93 95
19 20 18 14 11 12 11 12 15 14 19 35 28 10 8 13 12 8 10 8 2 9 17 44 14 29 43 48 41 45 46 38 52 55 60 67 70 78 78 79 83 83 89 93
8 11 13 14 3 2 3 14 9 21 27 41 16 9 10 6 8 9 3 7 12 12 25 18 17 18 23 33 38 43 46 50 47 46 47 47 52 59 71 71 69 70 71 73
16 10 7 7 6 6 8 11 10 20 23 25 12 9 8 11 8 11 16 9 13 13 3 10 20 23 34 41 41 43 45 48 54 52 51 51 48 49 54 68 65 63 65 70
11 4 8 15 3 4 7 12 10 18 27 10 7 15 14 6 8 11 9 15 8 5 11 19 24 37 43 37 47 51 49 47 46 51 51 50 52 50 53 60 60 56 58 57
Wind_Direction_500mb
284 286 282 280 291 213 191 210 233 224 189 177 204 211 193 263 214 209 230 210 239 227 209 224 248 251 232 142 172 187 134 229 231 239 96 47 56 297 241 261 214 254 301 265
279 284 283 273 261 213 197 226 233 206 186 211 213 206 244 245 205 204 197 212 219 210 215 239 220 200 32 164 210 192 174 193 278 184 178 185 223 195 217 224 263 255 263 263
266 274 277 274 251 219 223 234 230 201 212 232 229 200 222 224 221 235 214 225 179 164 216 226 202 226 196 195 210 253 184 206 241 261 317 40 210 207 213 207 234 272 247 282
273 258 260 259 252 221 223 224 231 202 208 230 220 230 190 209 212 217 215 239 207 195 217 218 209 229 233 208 198 185 156 250 231 259 277 282 266 263 246 225 238 247 267 264
255 260 250 246 234 217 229 225 217 214 241 225 207 220 230 215 225 189 216 228 209 221 227 210 191 216 222 231 175 179 174 250 137 262 247 269 268 259 255 250 255 256 262 271
266 255 253 247 232 214 222 237 239 242 240 218 224 218 228 233 217 241 231 219 235 227 231 240 252 283 263 248 181 197 182 202 207 250 84 313 271 242 226 244 243 242 254 261
265 255 253 244 240 228 223 223 229 238 246 226 220 232 230 233 232 238 231 232 233 238 205 228 263 274 255 236 229 184 188 186 202 274 133 256 250 186 237 248 244 240 256 280
265 255 254 249 242 241 224 226 219 233 249 243 246 237 241 245 240 240 239 223 227 222 174 213 250 218 252 228 225 219 216 192 226 243 240 282 293 278 264 211 263 245 252 267
272 264 254 254 249 241 244 223 224 218 267 240 244 242 231 231 237 246 242 237 224 195 158 208 233 227 181 204 223 331 227 218 210 214 241 256 265 116 137 132 267 256 195 239
280 271 261 250 251 248 251 253 220 213 222 243 238 227 230 231 225 240 204 176 178 201 209 232 238 229 192 233 198 174 179 201 221 228 239 256 257 159 158 229 284 166 189 212
281 278 269 256 248 251 249 256 255 216 224 239 222 226 218 211 215 217 154 152 207 200 220 230 225 245 225 232 233 175 182 181 208 225 233 248 195 140 216 255 285 207 214 311
282 274 269 260 252 252 251 256 259 255 225 244 232 232 227 223 225 224 202 216 148 196 206 212 215 228 194 223 234 194 220 211 209 204 216 244 195 227 228 240 281 279 297 306
286 273 266 254 251 253 252 253 253 247 231 247 242 232 228 225 222 214 195 218 223 235 240 281 264 251 277 240 240 250 231 244 243 260 249 256 261 263 254 259 265 273 285 296
283 272 264 253 253 255 249 249 247 242 223 238 233 237 227 232 225 223 227 227 225 239 249 253 252 259 196 254 267 266 250 252 244 253 255 268 271 266 262 259 267 273 280 284
280 269 268 256 252 255 253 246 249 247 216 275 241 232 228 221 224 222 214 220 224 222 221 223 239 251 256 256 261 257 243 247 244 245 263 262 259 256 259 267 272 277 276 292
279 272 273 255 249 249 252 244 251 249 246 238 224 213 203 206 213 218 219 226 226 228 229 234 244 246 243 259 258 258 258 257 258 264 260 259 265 276 269 263 269 277 284 291
273 266 271 249 250 242 212 207 267 270 232 221 232 189 190 199 194 197 202 213 216 220 232 235 243 241 229 245 251 258 259 260 252 259 269 270 273 271 265 261 271 272 282 285
266 258 254 256 252 256 257 260 252 291 205 199 226 101 154 169 167 184 205 207 215 218 228 236 229 241 231 248 254 257 254 260 261 263 264 258 258 258 258 262 269 277 277 278
257 251 245 252 245 242 250 261 260 258 221 186 162 146 158 161 143 169 177 197 219 221 224 232 235 234 232 255 251 253 257 256 266 264 261 258 262 266 266 266 269 265 269 272
250 238 207 222 226 225 207 199 217 231 232 168 124 114 155 167 172 177 181 189 218 228 215 221 226 238 246 256 256 248 254 259 254 247 251 251 252 254 259 263 265 260 265 270
234 207 203 199 175 162 187 201 204 197 233 186 182 184 152 200 171 179 200 206 223 240 211 219 231 241 242 249 250 251 253 253 254 256 254 253 257 261 260 263 262 265 268 269
214 206 181 160 178 192 195 193 181 197 218 187 188 192 197 165 182 186 179 226 224 251 146 229 241 256 271 261 259 261 265 266 265 263 255 254 255 259 259 260 263 265 266 267
187 175 166 190 175 190 194 188 194 198 192 184 163 154 153 142 177 191 186 218 227 120 215 246 249 265 269 272 280 281 285 285 288 283 265 258 259 268 266 267 274 276 273 275
172 156 191 201 182 225 198 201 206 180 166 156 170 146 162 168 176 210 228 208 157 236 238 242 260 263 279 270 283 297 305 304 308 301 282 274 269 270 274 271 274 277 276 275
129 148 204 200 200 206 221 216 210 200 189 151 133 131 178 159 206 193 129 192 232 226 250 261 257 257 292 303 306 307 316 312 312 305 305 292 281 277 277 281 284 280 279 275
159 185 148 105 152 203 215 191 227 206 171 156 139 142 197 207 207 183 210 220 229 250 256 348 328 321 319 321 319 319 318 315 312 311 307 303 303 302 294 293 291 293 286 277
153 190 192 157 88 123 169 209 229 193 163 187 172 191 198 107 202 212 211 231 254 16 329 323 324 326 322 318 317 324 322 315 311 312 314 305 303 300 292 281 289 296 297 291
Wind_Speed_850mb
37 34 29 23 20 10 15 14 8 14 37 16 11 13 11 4 11 17 11 5 9 8 7 5 7 8 6 6 8 5 3 2 7 11 7 3 2 4 7 8 6 7 7 21
43 40 31 28 21 15 18 11 13 16 43 13 16 5 7 15 11 14 14 16 15 7 8 6 12 4 5 5 6 5 9 5 5 8 4 5 10 13 13 8 5 23 15 18
44 47 44 31 26 27 26 8 5 15 31 26 22 16 13 13 18 29 18 10 10 7 11 17 4 4 2 4 6 6 4 6 13 23 17 5 8 17 22 20 10 19 34 54
42 49 45 43 33 31 35 18 10 18 10 24 25 32 11 17 18 20 27 12 30 20 13 16 9 13 9 11 12 10 2 12 13 25 28 25 27 30 29 30 38 21 50 45
62 46 52 53 42 34 43 18 10 10 13 27 33 40 35 30 20 20 13 31 23 36 27 23 10 15 14 12 14 13 7 6 2 9 16 18 28 38 35 42 48 47 58 61
55 61 53 54 57 48 53 46 45 14 20 22 23 35 41 36 41 28 43 26 29 23 29 38 33 15 14 9 13 18 14 8 7 12 5 6 19 22 38 30 36 37 39 47
59 65 60 64 61 68 62 52 42 28 24 22 32 26 43 44 42 40 20 43 31 7 10 14 16 12 12 25 26 25 13 12 7 9 2 21 17 5 15 24 33 36 40 41
57 63 68 66 76 70 82 72 62 26 26 40 40 41 34 39 42 45 38 28 12 21 13 4 10 6 5 17 31 36 27 15 8 10 19 31 46 35 27 20 25 29 35 30
69 64 65 67 64 79 69 95 83 55 20 37 53 44 45 29 22 21 33 43 26 25 6 10 22 16 6 10 7 2 17 27 15 15 15 18 21 10 13 12 19 24 24 19
62 66 65 68 61 66 69 60 100 68 47 74 40 36 34 47 36 19 13 17 18 42 14 20 21 21 13 19 13 13 12 10 33 29 22 19 23 22 19 11 17 26 29 19
61 63 64 61 64 65 63 73 65 88 45 70 52 72 41 27 45 22 12 11 18 12 20 15 18 20 21 23 20 16 24 20 17 20 20 35 25 24 19 17 13 14 11 9
60 62 65 61 60 61 62 75 72 63 66 42 59 83 65 78 68 45 41 18 12 27 14 16 11 15 9 20 24 21 16 25 18 22 19 20 19 18 37 22 17 23 34 48
63 63 66 63 61 63 64 74 68 55 66 67 61 72 78 78 73 64 30 23 40 23 16 6 7 18 5 24 32 22 21 33 24 24 39 46 52 43 38 39 47 56 62 70
62 59 56 59 60 63 60 69 70 71 29 13 34 58 86 73 85 95 88 68 37 32 32 20 12 17 20 14 19 20 24 24 37 38 52 53 57 55 51 55 61 64 67 58
54 51 50 52 55 56 57 65 71 73 63 6 18 41 50 75 79 71 65 65 55 36 25 14 18 23 23 30 32 30 42 44 30 32 33 37 43 52 56 55 51 48 48 56
49 46 45 47 51 50 55 44 61 74 65 19 9 13 37 58 62 74 76 76 61 53 32 19 44 64 31 15 28 41 57 64 79 57 77 81 74 74 56 47 48 67 65 79
50 43 42 40 45 39 26 13 15 16 67 28 5 8 21 58 47 44 40 49 38 38 34 23 41 43 42 28 42 56 75 76 45 58 56 70 74 61 60 61 74 76 83 90
47 40 36 30 30 33 39 40 32 34 54 23 7 2 13 45 20 20 37 25 33 28 30 31 27 38 35 29 46 76 89 78 76 84 75 80 84 81 78 71 79 88 91 98
37 34 33 30 33 30 37 32 24 29 24 8 9 10 5 26 14 17 20 23 11 19 14 24 20 24 23 29 42 59 76 76 75 82 87 88 90 94 93 91 94 89 101 102
35 30 18 14 25 30 15 15 10 12 9 13 1 9 8 23 23 17 13 17 10 9 15 19 19 32 70 72 74 66 62 72 81 56 59 71 77 80 86 87 95 96 104 104
43 21 23 16 21 29 15 13 12 9 5 12 20 33 14 26 11 10 20 6 6 9 11 11 9 11 28 66 78 90 94 94 95 94 91 89 88 85 81 85 90 89 97 101
43 28 23 30 19 14 12 10 10 10 11 14 14 23 43 19 18 10 10 8 7 13 9 8 10 23 38 49 62 70 80 92 91 90 93 94 93 100 98 94 91 95 100 96
51 25 18 15 14 14 15 15 9 10 8 16 14 8 19 10 18 7 9 14 12 5 9 15 26 16 39 51 64 61 71 62 65 78 84 85 92 97 93 92 95 97 93 95
19 20 18 14 11 12 11 12 15 14 19 35 28 10 8 13 12 8 10 8 2 9 17 44 14 29 43 48 41 45 46 38 52 55 60 67 70 78 78 79 83 83 89 93
8 11 13 14 3 2 3 14 9 21 27 41 16 9 10 6 8 9 3 7 12 12 25 18 17 18 23 33 38 43 46 50 47 46 47 47 52 59 71 71 69 70 71 73
16 10 7 7 6 6 8 11 10 20 23 25 12 9 8 11 8 11 16 9 13 13 3 10 20 23 34 41 41 43 45 48 54 52 51 51 48 49 54 68 65 63 65 70
11 4 8 15 3 4 7 12 10 18 27 10 7 15 14 6 8 11 9 15 8 5 11 19 24 37 43 37 47 51 49 47 46 51 51 50 52 50 53 60 60 56 58 57
Wind_Direction_850mb
284 286 282 280 291 213 191 210 233 224 189 177 204 211 193 263 214 209 230 210 239 227 209 224 248 251 232 142 172 187 134 229 231 239 96 47 56 297 241 261 214 254 301 265
279 284 283 273 261 213 197 226 233 206 186 211 213 206 244 245 205 204 197 212 219 210 215 239 220 200 32 164 210 192 174 193 278 184 178 185 223 195 217 224 263 255 263 263
266 274 277 274 251 219 223 234 230 201 212 232 229 200 222 224 221 235 214 225 179 164 216 226 202 226 196 195 210 253 184 206 241 261 317 40 210 207 213 207 234 272 247 282
273 258 260 259 252 221 223 224 231 202 208 230 220 230 190 209 212 217 215 239 207 195 217 218 209 229 233 208 198 185 156 250 231 259 277 282 266 263 246 225 238 247 267 264
255 260 250 246 234 217 229 225 217 214 241 225 207 220 230 215 225 189 216 228 209 221 227 210 191 216 222 231 175 179 174 250 137 262 247 269 268 259 255 250 255 256 262 271
266 255 253 247 232 214 222 237 239 242 240 218 224 218 228 233 217 241 231 219 235 227 231 240 252 283 263 248 181 197 182 202 207 250 84 313 271 242 226 244 243 242 254 261
265 255 253 244 240 228 223 223 229 238 246 226 220 232 230 233 232 238 231 232 233 238 205 228 263 274 255 236 229 184 188 186 202 274 133 256 250 186 237 248 244 240 256 280
265 255 254 249 242 241 224 226 219 233 249 243 246 237 241 245 240 240 239 223 227 222 174 213 250 218 252 228 225 219 216 192 226 243 240 282 293 278 264 211 263 245 252 267
272 264 254 254 249 241 244 223 224 218 267 240 244 242 231 231 237 246 242 237 224 195 158 208 233 227 181 204 223 331 227 218 210 214 241 256 265 116 137 132 267 256 195 239
280 271 261 250 251 248 251 253 220 213 222 243 238 227 230 231 225 240 204 176 178 201 209 232 238 229 192 233 198 174 179 201 221 228 239 256 257 159 158 229 284 166 189 212
281 278 269 256 248 251 249 256 255 216 224 239 222 226 218 211 215 217 154 152 207 200 220 230 225 245 225 232 233 175 182 181 208 225 233 248 195 140 216 255 285 207 214 311
282 274 269 260 252 252 251 256 259 255 225 244 232 232 227 223 225 224 202 216 148 196 206 212 215 228 194 223 234 194 220 211 209 204 216 244 195 227 228 240 281 279 297 306
286 273 266 254 251 253 252 253 253 247 231 247 242 232 228 225 222 214 195 218 223 235 240 281 264 251 277 240 240 250 231 244 243 260 249 256 261 263 254 259 265 273 285 296
283 272 264 253 253 255 249 249 247 242 223 238 233 237 227 232 225 223 227 227 225 239 249 253 252 259 196 254 267 266 250 252 244 253 255 268 271 266 262 259 267 273 280 284
280 269 268 256 252 255 253 246 249 247 216 275 241 232 228 221 224 222 214 220 224 222 221 223 239 251 256 256 261 257 243 247 244 245 263 262 259 256 259 267 272 277 276 292
279 272 273 255 249 249 252 244 251 249 246 238 224 213 203 206 213 218 219 226 226 228 229 234 244 246 243 259 258 258 258 257 258 264 260 259 265 276 269 263 269 277 284 291
273 266 271 249 250 242 212 207 267 270 232 221 232 189 190 199 194 197 202 213 216 220 232 235 243 241 229 245 251 258 259 260 252 259 269 270 273 271 265 261 271 272 282 285
266 258 254 256 252 256 257 260 252 291 205 199 226 101 154 169 167 184 205 207 215 218 228 236 229 241 231 248 254 257 254 260 261 263 264 258 258 258 258 262 269 277 277 278
257 251 245 252 245 242 250 261 260 258 221 186 162 146 158 161 143 169 177 197 219 221 224 232 235 234 232 255 251 253 257 256 266 264 261 258 262 266 266 266 269 265 269 272
250 238 207 222 226 225 207 199 217 231 232 168 124 114 155 167 172 177 181 189 218 228 215 221 226 238 246 256 256 248 254 259 254 247 251 251 252 254 259 263 265 260 265 270
234 207 203 199 175 162 187 201 204 197 233 186 182 184 152 200 171 179 200 206 223 240 211 219 231 241 242 249 250 251 253 253 254 256 254 253 257 261 260 263 262 265 268 269
214 206 181 160 178 192 195 193 181 197 218 187 188 192 197 165 182 186 179 226 224 251 146 229 241 256 271 261 259 261 265 266 265 263 255 254 255 259 259 260 263 265 266 267
187 175 166 190 175 190 194 188 194 198 192 184 163 154 153 142 177 191 186 218 227 120 215 246 249 265 269 272 280 281 285 285 288 283 265 258 259 268 266 267 274 276 273 275
172 156 191 201 182 225 198 201 206 180 166 156 170 146 162 168 176 210 228 208 157 236 238 242 260 263 279 270 283 297 305 304 308 301 282 274 269 270 274 271 274 277 276 275
129 148 204 200 200 206 221 216 210 200 189 151 133 131 178 159 206 193 129 192 232 226 250 261 257 257 292 303 306 307 316 312 312 305 305 292 281 277 277 281 284 280 279 275
159 185 148 105 152 203 215 191 227 206 171 156 139 142 197 207 207 183 210 220 229 250 256 348 328 321 319 321 319 319 318 315 312 311 307 303 303 302 294 293 291 293 286 277
153 190 192 157 88 123 169 209 229 193 163 187 172 191 198 107 202 212 211 231 254 16 329 323 324 326 322 318 317 324 322 315 311 312 314 305 303 300 292 281 289 296 297 291